Location: St. Louis
(38.6270°N, 90.1994°W)
Time: 23:09:52
(UTC-06:00)

Vanguard 1 - Pass Details

Date: 01 December 2021
Orbit: 652 x 3830 km, 34.2° (Epoch: 21 January)

Event Time Altitude Azimuth Distance (km) Brightness Sun altitude
Rises 02:27:40 0° 259° (W) 7,850 - -52.4°
Reaches altitude 10° 02:32:55 10° 258° (WSW) 6,917 - -51.4°
Exits shadow 02:55:39 76° 198° (SSW) 3,427 12.4 -47.1°
Maximum altitude 02:56:31 77° 178° (S) 3,377 12.4 -46.9°
Drops below altitude 10° 03:12:16 10° 96° (E) 4,911 14.2 -43.8°
Sets 03:15:16 0° 95° (E) 5,581 14.7 -43.3°
